Year,Month,Day,Hour,Minute,Value (Times are PST for temperature in C)
2015,08,18,00,00,15.70
2015,08,18,00,01,15.70
2015,08,18,00,02,15.70
2015,08,18,00,03,15.70
2015,08,18,00,04,15.70
2015,08,18,00,05,15.60
2015,08,18,00,06,15.60
2015,08,18,00,07,15.60
2015,08,18,00,08,15.50
2015,08,18,00,09,15.40
2015,08,18,00,10,15.30
2015,08,18,00,11,15.30
2015,08,18,00,12,15.20
2015,08,18,00,13,15.10
2015,08,18,00,14,15.00
2015,08,18,00,15,14.80
2015,08,18,00,16,14.70
2015,08,18,00,17,14.60
2015,08,18,00,18,14.50
2015,08,18,00,19,14.30
2015,08,18,00,20,14.20
2015,08,18,00,21,14.20
2015,08,18,00,22,14.20
2015,08,18,00,23,14.20
2015,08,18,00,24,14.10
2015,08,18,00,25,14.10
2015,08,18,00,26,14.10
2015,08,18,00,27,14.00
2015,08,18,00,28,14.00
2015,08,18,00,29,14.00
2015,08,18,00,30,14.00
2015,08,18,00,31,14.00
2015,08,18,00,32,13.90
2015,08,18,00,33,13.90
2015,08,18,00,34,13.90
2015,08,18,00,35,13.90
2015,08,18,00,36,13.80
2015,08,18,00,37,13.80
2015,08,18,00,38,13.80
2015,08,18,00,39,13.70
2015,08,18,00,40,13.70
2015,08,18,00,41,13.70
2015,08,18,00,42,13.70
2015,08,18,00,43,13.60
2015,08,18,00,44,13.60
2015,08,18,00,45,13.50
2015,08,18,00,46,13.50
2015,08,18,00,47,13.50
2015,08,18,00,48,13.40
2015,08,18,00,49,13.40
2015,08,18,00,50,13.30
2015,08,18,00,51,13.30
2015,08,18,00,52,13.30
2015,08,18,00,53,13.30
2015,08,18,00,54,13.30
2015,08,18,00,55,13.20
2015,08,18,00,56,13.20
2015,08,18,00,57,13.20
2015,08,18,00,58,13.20
2015,08,18,00,59,13.10
2015,08,18,01,00,13.10
2015,08,18,01,01,13.10
2015,08,18,01,02,13.10
2015,08,18,01,03,13.00
2015,08,18,01,04,13.00
2015,08,18,01,05,13.00
2015,08,18,01,06,13.00
2015,08,18,01,07,13.00
2015,08,18,01,08,13.00
2015,08,18,01,09,12.90
2015,08,18,01,10,12.90
2015,08,18,01,11,12.90
2015,08,18,01,12,12.90
2015,08,18,01,13,12.90
2015,08,18,01,14,12.90
2015,08,18,01,15,12.90
2015,08,18,01,16,12.90
2015,08,18,01,17,12.90
2015,08,18,01,18,12.80
2015,08,18,01,19,12.80
2015,08,18,01,20,12.80
2015,08,18,01,21,12.80
2015,08,18,01,22,12.80
2015,08,18,01,23,12.80
2015,08,18,01,24,12.80
2015,08,18,01,25,12.80
2015,08,18,01,26,12.80
2015,08,18,01,27,12.80
2015,08,18,01,28,12.70
2015,08,18,01,29,12.70
2015,08,18,01,30,12.70
2015,08,18,01,31,12.70
2015,08,18,01,32,12.70
2015,08,18,01,33,12.70
2015,08,18,01,34,12.70
2015,08,18,01,35,12.60
2015,08,18,01,36,12.60
2015,08,18,01,37,12.60
2015,08,18,01,38,12.60
2015,08,18,01,39,12.60
2015,08,18,01,40,12.60
2015,08,18,01,41,12.60
2015,08,18,01,42,12.60
2015,08,18,01,43,12.60
2015,08,18,01,44,12.60
2015,08,18,01,45,12.60
2015,08,18,01,46,12.60
2015,08,18,01,47,12.60
2015,08,18,01,48,12.60
2015,08,18,01,49,12.60
2015,08,18,01,50,12.60
2015,08,18,01,51,12.60
2015,08,18,01,52,12.60
2015,08,18,01,53,12.60
2015,08,18,01,54,12.60
2015,08,18,01,55,12.60
2015,08,18,01,56,12.60
2015,08,18,01,57,12.60
2015,08,18,01,58,12.60
2015,08,18,01,59,12.60
2015,08,18,02,00,12.60
2015,08,18,02,01,12.60
2015,08,18,02,02,12.60
2015,08,18,02,03,12.60
2015,08,18,02,04,12.60
2015,08,18,02,05,12.60
2015,08,18,02,06,12.60
2015,08,18,02,07,12.60
2015,08,18,02,08,12.60
2015,08,18,02,09,12.60
2015,08,18,02,10,12.60
2015,08,18,02,11,12.60
2015,08,18,02,12,12.60
2015,08,18,02,13,12.60
2015,08,18,02,14,12.60
2015,08,18,02,15,12.60
2015,08,18,02,16,12.60
2015,08,18,02,17,12.60
2015,08,18,02,18,12.60
2015,08,18,02,19,12.50
2015,08,18,02,20,12.50
2015,08,18,02,21,12.50
2015,08,18,02,22,12.50
2015,08,18,02,23,12.60
2015,08,18,02,24,12.60
2015,08,18,02,25,12.60
2015,08,18,02,26,12.60
2015,08,18,02,27,12.50
2015,08,18,02,28,12.50
2015,08,18,02,29,12.50
2015,08,18,02,30,12.50
2015,08,18,02,31,12.50
2015,08,18,02,32,12.50
2015,08,18,02,33,12.50
2015,08,18,02,34,12.40
2015,08,18,02,35,12.40
2015,08,18,02,36,12.40
2015,08,18,02,37,12.40
2015,08,18,02,38,12.40
2015,08,18,02,39,12.40
2015,08,18,02,40,12.40
2015,08,18,02,41,12.40
2015,08,18,02,42,12.40
2015,08,18,02,43,12.40
2015,08,18,02,44,12.40
2015,08,18,02,45,12.40
2015,08,18,02,46,12.30
2015,08,18,02,47,12.30
2015,08,18,02,48,12.30
2015,08,18,02,49,12.30
2015,08,18,02,50,12.30
2015,08,18,02,51,12.30
2015,08,18,02,52,12.30
2015,08,18,02,53,12.30
2015,08,18,02,54,12.30
2015,08,18,02,55,12.30
2015,08,18,02,56,12.30
2015,08,18,02,57,12.30
2015,08,18,02,58,12.30
2015,08,18,02,59,12.30
2015,08,18,03,00,12.30
2015,08,18,03,01,12.30
2015,08,18,03,02,12.30
2015,08,18,03,03,12.30
2015,08,18,03,04,12.30
2015,08,18,03,05,12.30
2015,08,18,03,06,12.30
2015,08,18,03,07,12.30
2015,08,18,03,08,12.30
2015,08,18,03,09,12.30
2015,08,18,03,10,12.30
2015,08,18,03,11,12.30
2015,08,18,03,12,12.30
2015,08,18,03,13,12.30
2015,08,18,03,14,12.30
2015,08,18,03,15,12.30
2015,08,18,03,16,12.30
2015,08,18,03,17,12.30
2015,08,18,03,18,12.30
2015,08,18,03,19,12.30
2015,08,18,03,20,12.30
2015,08,18,03,21,12.30
2015,08,18,03,22,12.30
2015,08,18,03,23,12.30
2015,08,18,03,24,12.30
2015,08,18,03,25,12.30
2015,08,18,03,26,12.30
2015,08,18,03,27,12.30
2015,08,18,03,28,12.30
2015,08,18,03,29,12.30
2015,08,18,03,30,12.30
2015,08,18,03,31,12.30
2015,08,18,03,32,12.30
2015,08,18,03,33,12.30
2015,08,18,03,34,12.30
2015,08,18,03,35,12.30
2015,08,18,03,36,12.30
2015,08,18,03,37,12.30
2015,08,18,03,38,12.30
2015,08,18,03,39,12.30
2015,08,18,03,40,12.30
2015,08,18,03,41,12.30
2015,08,18,03,42,12.30
2015,08,18,03,43,12.30
2015,08,18,03,44,12.30
2015,08,18,03,45,12.30
2015,08,18,03,46,12.30
2015,08,18,03,47,12.30
2015,08,18,03,48,12.30
2015,08,18,03,49,12.30
2015,08,18,03,50,12.30
2015,08,18,03,51,12.30
2015,08,18,03,52,12.30
2015,08,18,03,53,12.30
2015,08,18,03,54,12.30
2015,08,18,03,55,12.30
2015,08,18,03,56,12.30
2015,08,18,03,57,12.30
2015,08,18,03,58,12.30
2015,08,18,03,59,12.30
2015,08,18,04,00,12.30
2015,08,18,04,01,12.30
2015,08,18,04,02,12.30
2015,08,18,04,03,12.20
2015,08,18,04,04,12.20
2015,08,18,04,05,12.20
2015,08,18,04,06,12.20
2015,08,18,04,07,12.20
2015,08,18,04,08,12.20
2015,08,18,04,09,12.30
2015,08,18,04,10,12.30
2015,08,18,04,11,12.30
2015,08,18,04,12,12.30
2015,08,18,04,13,12.30
2015,08,18,04,14,12.30
2015,08,18,04,15,12.30
2015,08,18,04,16,12.30
2015,08,18,04,17,12.30
2015,08,18,04,18,12.30
2015,08,18,04,19,12.30
2015,08,18,04,20,12.30
2015,08,18,04,21,12.30
2015,08,18,04,22,12.30
2015,08,18,04,23,12.30
2015,08,18,04,24,12.30
2015,08,18,04,25,12.30
2015,08,18,04,26,12.30
2015,08,18,04,27,12.30
2015,08,18,04,28,12.30
2015,08,18,04,29,12.30
2015,08,18,04,30,12.30
2015,08,18,04,31,12.20
2015,08,18,04,32,12.20
2015,08,18,04,33,12.20
2015,08,18,04,34,12.20
2015,08,18,04,35,12.20
2015,08,18,04,36,12.30
2015,08,18,04,37,12.30
2015,08,18,04,38,12.30
2015,08,18,04,39,12.30
2015,08,18,04,40,12.30
2015,08,18,04,41,12.30
2015,08,18,04,42,12.30
2015,08,18,04,43,12.30
2015,08,18,04,44,12.30
2015,08,18,04,45,12.30
2015,08,18,04,46,12.30
2015,08,18,04,47,12.30
2015,08,18,04,48,12.30
2015,08,18,04,49,12.30
2015,08,18,04,50,12.30
2015,08,18,04,51,12.30
2015,08,18,04,52,12.30
2015,08,18,04,53,12.30
2015,08,18,04,54,12.30
2015,08,18,04,55,12.30
2015,08,18,04,56,12.30
2015,08,18,04,57,12.30
2015,08,18,04,58,12.30
2015,08,18,04,59,12.30
2015,08,18,05,00,12.30
2015,08,18,05,01,12.40
2015,08,18,05,02,12.40
2015,08,18,05,03,12.40
2015,08,18,05,04,12.40
2015,08,18,05,05,12.40
2015,08,18,05,06,12.40
2015,08,18,05,07,12.40
2015,08,18,05,08,12.40
2015,08,18,05,09,12.40
2015,08,18,05,10,12.40
2015,08,18,05,11,12.30
2015,08,18,05,12,12.30
2015,08,18,05,13,12.30
2015,08,18,05,14,12.30
2015,08,18,05,15,12.30
2015,08,18,05,16,12.30
2015,08,18,05,17,12.30
2015,08,18,05,18,12.30
2015,08,18,05,19,12.30
2015,08,18,05,20,12.30
2015,08,18,05,21,12.30
2015,08,18,05,22,12.30
2015,08,18,05,23,12.30
2015,08,18,05,24,12.30
2015,08,18,05,25,12.30
2015,08,18,05,26,12.30
2015,08,18,05,27,12.30
2015,08,18,05,28,12.30
2015,08,18,05,29,12.30
2015,08,18,05,30,12.30
2015,08,18,05,31,12.30
2015,08,18,05,32,12.30
2015,08,18,05,33,12.30
2015,08,18,05,34,12.30
2015,08,18,05,35,12.30
2015,08,18,05,36,12.30
2015,08,18,05,37,12.30
2015,08,18,05,38,12.30
2015,08,18,05,39,12.30
2015,08,18,05,40,12.30
2015,08,18,05,41,12.30
2015,08,18,05,42,12.30
2015,08,18,05,43,12.30
2015,08,18,05,44,12.30
2015,08,18,05,45,12.30
2015,08,18,05,46,12.30
2015,08,18,05,47,12.30
2015,08,18,05,48,12.30
2015,08,18,05,49,12.30
2015,08,18,05,50,12.30
2015,08,18,05,51,12.30
2015,08,18,05,52,12.30
2015,08,18,05,53,12.30
2015,08,18,05,54,12.30
2015,08,18,05,55,12.30
2015,08,18,05,56,12.30
2015,08,18,05,57,12.30
2015,08,18,05,58,12.30
2015,08,18,05,59,12.30
2015,08,18,06,00,12.30
2015,08,18,06,01,12.30
2015,08,18,06,02,12.30
2015,08,18,06,03,12.30
2015,08,18,06,04,12.30
2015,08,18,06,05,12.30
2015,08,18,06,06,12.30
2015,08,18,06,07,12.30
2015,08,18,06,08,12.30
2015,08,18,06,09,12.30
2015,08,18,06,10,12.30
2015,08,18,06,11,12.30
2015,08,18,06,12,12.30
2015,08,18,06,13,12.30
2015,08,18,06,14,12.30
2015,08,18,06,15,12.30
2015,08,18,06,16,12.30
2015,08,18,06,17,12.30
2015,08,18,06,18,12.30
2015,08,18,06,19,12.30
2015,08,18,06,20,12.30
2015,08,18,06,21,12.30
2015,08,18,06,22,12.30
2015,08,18,06,23,12.30
2015,08,18,06,24,12.30
2015,08,18,06,25,12.30
2015,08,18,06,26,12.30
2015,08,18,06,27,12.30
2015,08,18,06,28,12.30
2015,08,18,06,29,12.30
2015,08,18,06,30,12.30
2015,08,18,06,31,12.30
2015,08,18,06,32,12.30
2015,08,18,06,33,12.30
2015,08,18,06,34,12.30
2015,08,18,06,35,12.40
2015,08,18,06,36,12.40
2015,08,18,06,37,12.40
2015,08,18,06,38,12.40
2015,08,18,06,39,12.40
2015,08,18,06,40,12.40
2015,08,18,06,41,12.40
2015,08,18,06,42,12.40
2015,08,18,06,43,12.40
2015,08,18,06,44,12.40
2015,08,18,06,45,12.50
2015,08,18,06,46,12.50
2015,08,18,06,47,12.50
2015,08,18,06,48,12.50
2015,08,18,06,49,12.50
2015,08,18,06,50,12.50
2015,08,18,06,51,12.50
2015,08,18,06,52,12.50
2015,08,18,06,53,12.60
2015,08,18,06,54,12.60
2015,08,18,06,55,12.60
2015,08,18,06,56,12.60
2015,08,18,06,57,12.70
2015,08,18,06,58,12.70
2015,08,18,06,59,12.70
2015,08,18,07,00,12.80
2015,08,18,07,01,12.80
2015,08,18,07,02,12.80
2015,08,18,07,03,12.80
2015,08,18,07,04,12.80
2015,08,18,07,05,12.90
2015,08,18,07,06,12.90
2015,08,18,07,07,13.00
2015,08,18,07,08,13.00
2015,08,18,07,09,13.00
2015,08,18,07,10,13.10
2015,08,18,07,11,13.10
2015,08,18,07,12,13.20
2015,08,18,07,13,13.20
2015,08,18,07,14,13.30
2015,08,18,07,15,13.30
2015,08,18,07,16,13.30
2015,08,18,07,17,13.40
2015,08,18,07,18,13.40
2015,08,18,07,19,13.40
2015,08,18,07,20,13.40
2015,08,18,07,21,13.40
2015,08,18,07,22,13.40
2015,08,18,07,23,13.40
2015,08,18,07,24,13.30
2015,08,18,07,25,13.30
2015,08,18,07,26,13.40
2015,08,18,07,27,13.40
2015,08,18,07,28,13.40
2015,08,18,07,29,13.40
2015,08,18,07,30,13.50
2015,08,18,07,31,13.50
2015,08,18,07,32,13.60
2015,08,18,07,33,13.60
2015,08,18,07,34,13.70
2015,08,18,07,35,13.70
2015,08,18,07,36,13.70
2015,08,18,07,37,13.80
2015,08,18,07,38,13.90
2015,08,18,07,39,13.90
2015,08,18,07,40,14.00
2015,08,18,07,41,14.00
2015,08,18,07,42,14.00
2015,08,18,07,43,14.00
2015,08,18,07,44,14.00
2015,08,18,07,45,14.00
2015,08,18,07,46,13.90
2015,08,18,07,47,13.90
2015,08,18,07,48,13.80
2015,08,18,07,49,13.70
2015,08,18,07,50,13.70
2015,08,18,07,51,13.70
2015,08,18,07,52,13.70
2015,08,18,07,53,13.70
2015,08,18,07,54,13.70
2015,08,18,07,55,13.70
2015,08,18,07,56,13.70
2015,08,18,07,57,13.70
2015,08,18,07,58,13.70
2015,08,18,07,59,13.80
2015,08,18,08,00,13.90
2015,08,18,08,01,14.00
2015,08,18,08,02,14.00
2015,08,18,08,03,14.10
2015,08,18,08,04,14.20
2015,08,18,08,05,14.30
2015,08,18,08,06,14.50
2015,08,18,08,07,14.50
2015,08,18,08,08,14.60
2015,08,18,08,09,14.80
2015,08,18,08,10,14.90
2015,08,18,08,11,15.00
2015,08,18,08,12,15.00
2015,08,18,08,13,15.10
2015,08,18,08,14,15.20
2015,08,18,08,15,15.20
2015,08,18,08,16,15.20
2015,08,18,08,17,15.30
2015,08,18,08,18,15.30
2015,08,18,08,19,15.30
2015,08,18,08,20,15.30
2015,08,18,08,21,15.30
2015,08,18,08,22,15.30
2015,08,18,08,23,15.30
2015,08,18,08,24,15.30
2015,08,18,08,25,15.40
2015,08,18,08,26,15.50
2015,08,18,08,27,15.70
2015,08,18,08,28,15.90
2015,08,18,08,29,16.20
2015,08,18,08,30,16.40
2015,08,18,08,31,16.70
2015,08,18,08,32,16.90
2015,08,18,08,33,17.10
2015,08,18,08,34,17.40
2015,08,18,08,35,17.60
2015,08,18,08,36,17.90
2015,08,18,08,37,18.10
2015,08,18,08,38,18.30
2015,08,18,08,39,18.50
2015,08,18,08,40,18.70
2015,08,18,08,41,18.80
2015,08,18,08,42,19.00
2015,08,18,08,43,19.10
2015,08,18,08,44,19.30
2015,08,18,08,45,19.40
2015,08,18,08,46,19.50
2015,08,18,08,47,19.60
2015,08,18,08,48,19.70
2015,08,18,08,49,19.70
2015,08,18,08,50,19.80
2015,08,18,08,51,19.90
2015,08,18,08,52,19.90
2015,08,18,08,53,20.10
2015,08,18,08,54,20.20
2015,08,18,08,55,20.20
2015,08,18,08,56,20.20
2015,08,18,08,57,20.20
2015,08,18,08,58,20.20
2015,08,18,08,59,20.30
2015,08,18,09,00,20.40
2015,08,18,09,01,20.40
2015,08,18,09,02,20.50
2015,08,18,09,03,20.60
2015,08,18,09,04,20.60
2015,08,18,09,05,20.70
2015,08,18,09,06,20.80
2015,08,18,09,07,20.90
2015,08,18,09,08,21.00
2015,08,18,09,09,21.00
2015,08,18,09,10,21.10
2015,08,18,09,11,21.10
2015,08,18,09,12,21.10
2015,08,18,09,13,21.10
2015,08,18,09,14,21.20
2015,08,18,09,15,21.20
2015,08,18,09,16,21.20
2015,08,18,09,17,21.20
2015,08,18,09,18,21.20
2015,08,18,09,19,21.20
2015,08,18,09,20,21.20
2015,08,18,09,21,21.20
2015,08,18,09,22,21.20
2015,08,18,09,23,21.20
2015,08,18,09,24,21.30
2015,08,18,09,25,21.30
2015,08,18,09,26,21.30
2015,08,18,09,27,21.40
2015,08,18,09,28,21.40
2015,08,18,09,29,21.50
2015,08,18,09,30,21.60
2015,08,18,09,31,21.60
2015,08,18,09,32,21.60
2015,08,18,09,33,21.60
2015,08,18,09,34,21.60
2015,08,18,09,35,21.60
2015,08,18,09,36,21.60
2015,08,18,09,37,21.60
2015,08,18,09,38,21.60
2015,08,18,09,39,21.70
2015,08,18,09,40,21.70
2015,08,18,09,41,21.70
2015,08,18,09,42,21.60
2015,08,18,09,43,21.60
2015,08,18,09,44,21.70
2015,08,18,09,45,21.70
2015,08,18,09,46,21.70
2015,08,18,09,47,21.80
2015,08,18,09,48,21.80
2015,08,18,09,49,21.80
2015,08,18,09,50,21.80
2015,08,18,09,51,21.80
2015,08,18,09,52,21.80
2015,08,18,09,53,21.80
2015,08,18,09,54,21.70
2015,08,18,09,55,21.70
2015,08,18,09,56,21.70
2015,08,18,09,57,21.80
2015,08,18,09,58,21.80
2015,08,18,09,59,21.80
2015,08,18,10,00,21.90
2015,08,18,10,01,21.90
2015,08,18,10,02,21.90
2015,08,18,10,03,21.90
2015,08,18,10,04,21.90
2015,08,18,10,05,21.90
2015,08,18,10,06,21.90
2015,08,18,10,07,21.90
2015,08,18,10,08,21.90
2015,08,18,10,09,21.90
2015,08,18,10,10,21.90
2015,08,18,10,11,21.90
2015,08,18,10,12,21.90
2015,08,18,10,13,21.90
2015,08,18,10,14,22.00
2015,08,18,10,15,22.10
2015,08,18,10,16,22.10
2015,08,18,10,17,22.20
2015,08,18,10,18,22.20
2015,08,18,10,19,22.20
2015,08,18,10,20,22.20
2015,08,18,10,21,22.20
2015,08,18,10,22,22.20
2015,08,18,10,23,22.10
2015,08,18,10,24,22.10
2015,08,18,10,25,22.10
2015,08,18,10,26,22.10
2015,08,18,10,27,22.20
2015,08,18,10,28,22.20
2015,08,18,10,29,22.20
2015,08,18,10,30,22.20
2015,08,18,10,31,22.30
2015,08,18,10,32,22.30
2015,08,18,10,33,22.30
2015,08,18,10,34,22.30
2015,08,18,10,35,22.30
2015,08,18,10,36,22.30
2015,08,18,10,37,22.30
2015,08,18,10,38,22.40
2015,08,18,10,39,22.40
2015,08,18,10,40,22.40
2015,08,18,10,41,22.30
2015,08,18,10,42,22.30
2015,08,18,10,43,22.30
2015,08,18,10,44,22.30
2015,08,18,10,45,22.30
2015,08,18,10,46,22.30
2015,08,18,10,47,22.30
2015,08,18,10,48,22.20
2015,08,18,10,49,22.10
2015,08,18,10,50,22.10
2015,08,18,10,51,22.10
2015,08,18,10,52,22.10
2015,08,18,10,53,22.20
2015,08,18,10,54,22.30
2015,08,18,10,55,22.40
2015,08,18,10,56,22.50
2015,08,18,10,57,22.60
2015,08,18,10,58,22.70
2015,08,18,10,59,22.80
2015,08,18,11,00,22.80
2015,08,18,11,01,22.90
2015,08,18,11,02,22.90
2015,08,18,11,03,23.00
2015,08,18,11,04,23.10
2015,08,18,11,05,23.10
2015,08,18,11,06,23.10
2015,08,18,11,07,23.00
2015,08,18,11,08,22.90
2015,08,18,11,09,22.90
2015,08,18,11,10,23.00
2015,08,18,11,11,23.10
2015,08,18,11,12,23.10
2015,08,18,11,13,23.10
2015,08,18,11,14,23.10
2015,08,18,11,15,23.20
2015,08,18,11,16,23.30
2015,08,18,11,17,23.30
2015,08,18,11,18,23.30
2015,08,18,11,19,23.40
2015,08,18,11,20,23.40
2015,08,18,11,21,23.40
2015,08,18,11,22,23.50
2015,08,18,11,23,23.60
2015,08,18,11,24,23.60
2015,08,18,11,25,23.50
2015,08,18,11,26,23.40
2015,08,18,11,27,23.40
2015,08,18,11,28,23.30
2015,08,18,11,29,23.30
2015,08,18,11,30,23.30
2015,08,18,11,31,23.20
2015,08,18,11,32,23.30
2015,08,18,11,33,23.30
2015,08,18,11,34,23.30
2015,08,18,11,35,23.40
2015,08,18,11,36,23.40
2015,08,18,11,37,23.30
2015,08,18,11,38,23.30
2015,08,18,11,39,23.30
2015,08,18,11,40,23.30
2015,08,18,11,41,23.30
2015,08,18,11,42,23.30
2015,08,18,11,43,23.30
2015,08,18,11,44,23.30
2015,08,18,11,45,23.30
2015,08,18,11,46,23.30
2015,08,18,11,47,23.30
2015,08,18,11,48,23.30
2015,08,18,11,49,23.30
2015,08,18,11,50,23.40
2015,08,18,11,51,23.50
2015,08,18,11,52,23.60
2015,08,18,11,53,23.60
2015,08,18,11,54,23.50
2015,08,18,11,55,23.40
2015,08,18,11,56,23.40
2015,08,18,11,57,23.30
2015,08,18,11,58,23.30
2015,08,18,11,59,23.30
2015,08,18,12,00,23.30
2015,08,18,12,01,23.50
2015,08,18,12,02,23.60
2015,08,18,12,03,23.70
2015,08,18,12,04,23.80
2015,08,18,12,05,23.90
2015,08,18,12,06,23.90
2015,08,18,12,07,23.90
2015,08,18,12,08,23.80
2015,08,18,12,09,23.80
2015,08,18,12,10,23.80
2015,08,18,12,11,23.80
2015,08,18,12,12,24.00
2015,08,18,12,13,24.10
2015,08,18,12,14,24.20
2015,08,18,12,15,24.30
2015,08,18,12,16,24.50
2015,08,18,12,17,24.70
2015,08,18,12,18,24.90
2015,08,18,12,19,25.10
2015,08,18,12,20,25.30
2015,08,18,12,21,25.40
2015,08,18,12,22,25.50
2015,08,18,12,23,25.60
2015,08,18,12,24,25.70
2015,08,18,12,25,25.80
2015,08,18,12,26,25.90
2015,08,18,12,27,26.00
2015,08,18,12,28,26.00
2015,08,18,12,29,25.90
2015,08,18,12,30,25.80
2015,08,18,12,31,25.70
2015,08,18,12,32,25.60
2015,08,18,12,33,25.60
2015,08,18,12,34,25.60
2015,08,18,12,35,25.50
2015,08,18,12,36,25.40
2015,08,18,12,37,25.30
2015,08,18,12,38,25.10
2015,08,18,12,39,25.00
2015,08,18,12,40,24.80
2015,08,18,12,41,24.70
2015,08,18,12,42,24.60
2015,08,18,12,43,24.50
2015,08,18,12,44,24.50
2015,08,18,12,45,24.40
2015,08,18,12,46,24.40
2015,08,18,12,47,24.30
2015,08,18,12,48,24.30
2015,08,18,12,49,24.30
2015,08,18,12,50,24.30
2015,08,18,12,51,24.30
2015,08,18,12,52,24.30
2015,08,18,12,53,24.20
2015,08,18,12,54,24.10
2015,08,18,12,55,24.10
2015,08,18,12,56,24.10
2015,08,18,12,57,24.00
2015,08,18,12,58,23.90
2015,08,18,12,59,23.80
2015,08,18,13,00,23.70
2015,08,18,13,01,23.70
2015,08,18,13,02,23.70
2015,08,18,13,03,23.70
2015,08,18,13,04,23.70
2015,08,18,13,05,23.70
2015,08,18,13,06,23.70
2015,08,18,13,07,23.70
2015,08,18,13,08,23.80
2015,08,18,13,09,23.90
2015,08,18,13,10,24.00
2015,08,18,13,11,24.10
2015,08,18,13,12,24.20
2015,08,18,13,13,24.30
2015,08,18,13,14,24.40
2015,08,18,13,15,24.40
2015,08,18,13,16,24.40
2015,08,18,13,17,24.50
2015,08,18,13,18,24.50
2015,08,18,13,19,24.60
2015,08,18,13,20,24.50
2015,08,18,13,21,24.50
2015,08,18,13,22,24.50
2015,08,18,13,23,24.50
2015,08,18,13,24,24.40
2015,08,18,13,25,24.40
2015,08,18,13,26,24.40
2015,08,18,13,27,24.40
2015,08,18,13,28,24.40
2015,08,18,13,29,24.40
2015,08,18,13,30,24.50
2015,08,18,13,31,24.50
2015,08,18,13,32,24.60
2015,08,18,13,33,24.60
2015,08,18,13,34,24.70
2015,08,18,13,35,24.70
2015,08,18,13,36,24.70
2015,08,18,13,37,24.80
2015,08,18,13,38,24.90
2015,08,18,13,39,25.00
2015,08,18,13,40,25.10
2015,08,18,13,41,25.20
2015,08,18,13,42,25.30
2015,08,18,13,43,25.30
2015,08,18,13,44,25.30
2015,08,18,13,45,25.30
2015,08,18,13,46,25.30
2015,08,18,13,47,25.30
2015,08,18,13,48,25.30
2015,08,18,13,49,25.30
2015,08,18,13,50,25.20
2015,08,18,13,51,25.20
2015,08,18,13,52,25.20
2015,08,18,13,53,25.10
2015,08,18,13,54,25.00
2015,08,18,13,55,25.00
2015,08,18,13,56,24.90
2015,08,18,13,57,24.90
2015,08,18,13,58,24.90
2015,08,18,13,59,24.80
2015,08,18,14,00,24.80
2015,08,18,14,01,24.80
2015,08,18,14,02,24.80
2015,08,18,14,03,24.80
2015,08,18,14,04,24.80
2015,08,18,14,05,24.70
2015,08,18,14,06,24.70
2015,08,18,14,07,24.70
2015,08,18,14,08,24.70
2015,08,18,14,09,24.70
2015,08,18,14,10,24.70
2015,08,18,14,11,24.80
2015,08,18,14,12,24.80
2015,08,18,14,13,24.80
2015,08,18,14,14,24.80
2015,08,18,14,15,24.80
2015,08,18,14,16,24.80
2015,08,18,14,17,24.90
2015,08,18,14,18,24.90
2015,08,18,14,19,24.90
2015,08,18,14,20,25.00
2015,08,18,14,21,25.00
2015,08,18,14,22,25.00
2015,08,18,14,23,25.10
2015,08,18,14,24,25.20
2015,08,18,14,25,25.30
2015,08,18,14,26,25.30
2015,08,18,14,27,25.30
2015,08,18,14,28,25.40
2015,08,18,14,29,25.50
2015,08,18,14,30,25.60
2015,08,18,14,31,25.70
2015,08,18,14,32,25.70
2015,08,18,14,33,25.70
2015,08,18,14,34,25.70
2015,08,18,14,35,25.80
2015,08,18,14,36,25.90
2015,08,18,14,37,25.90
2015,08,18,14,38,26.00
2015,08,18,14,39,26.10
2015,08,18,14,40,26.10
2015,08,18,14,41,26.10
2015,08,18,14,42,26.10
2015,08,18,14,43,26.10
2015,08,18,14,44,26.10
2015,08,18,14,45,26.10
2015,08,18,14,46,26.20
2015,08,18,14,47,26.20
2015,08,18,14,48,26.00
2015,08,18,14,49,25.90
2015,08,18,14,50,25.60
2015,08,18,14,51,25.40
2015,08,18,14,52,25.30
2015,08,18,14,53,25.20
2015,08,18,14,54,25.10
2015,08,18,14,55,24.90
2015,08,18,14,56,24.80
2015,08,18,14,57,24.70
2015,08,18,14,58,24.50
2015,08,18,14,59,24.40
2015,08,18,15,00,24.40
2015,08,18,15,01,24.50
2015,08,18,15,02,24.60
2015,08,18,15,03,24.80
2015,08,18,15,04,24.90
2015,08,18,15,05,25.10
2015,08,18,15,06,25.30
2015,08,18,15,07,25.40
2015,08,18,15,08,25.50
2015,08,18,15,09,25.70
2015,08,18,15,10,25.80
2015,08,18,15,11,25.90
2015,08,18,15,12,26.00
2015,08,18,15,13,26.10
2015,08,18,15,14,26.30
2015,08,18,15,15,26.40
2015,08,18,15,16,26.50
2015,08,18,15,17,26.60
2015,08,18,15,18,26.60
2015,08,18,15,19,26.70
2015,08,18,15,20,26.80
2015,08,18,15,21,26.90
2015,08,18,15,22,27.00
2015,08,18,15,23,27.10
2015,08,18,15,24,27.20
2015,08,18,15,25,27.30
2015,08,18,15,26,27.40
2015,08,18,15,27,27.40
2015,08,18,15,28,27.30
2015,08,18,15,29,27.30
2015,08,18,15,30,27.30
2015,08,18,15,31,27.30
2015,08,18,15,32,27.30
2015,08,18,15,33,27.30
2015,08,18,15,34,27.40
2015,08,18,15,35,27.40
2015,08,18,15,36,27.40
2015,08,18,15,37,27.40
2015,08,18,15,38,27.50
2015,08,18,15,39,27.60
2015,08,18,15,40,27.60
2015,08,18,15,41,27.70
2015,08,18,15,42,27.70
2015,08,18,15,43,27.80
2015,08,18,15,44,28.00
2015,08,18,15,45,28.00
2015,08,18,15,46,28.10
2015,08,18,15,47,28.20
2015,08,18,15,48,28.30
2015,08,18,15,49,28.30
2015,08,18,15,50,28.30
2015,08,18,15,51,28.30
2015,08,18,15,52,28.20
2015,08,18,15,53,28.10
2015,08,18,15,54,28.10
2015,08,18,15,55,28.00
2015,08,18,15,56,27.90
2015,08,18,15,57,27.80
2015,08,18,15,58,27.60
2015,08,18,15,59,27.50
2015,08,18,16,00,27.40
2015,08,18,16,01,27.40
2015,08,18,16,02,27.40
2015,08,18,16,03,27.40
2015,08,18,16,04,27.30
2015,08,18,16,05,27.00
2015,08,18,16,06,26.60
2015,08,18,16,07,26.20
2015,08,18,16,08,25.70
2015,08,18,16,09,25.20
2015,08,18,16,10,24.80
2015,08,18,16,11,24.30
2015,08,18,16,12,24.10
2015,08,18,16,13,24.00
2015,08,18,16,14,23.90
2015,08,18,16,15,23.90
2015,08,18,16,16,23.80
2015,08,18,16,17,23.80
2015,08,18,16,18,24.00
2015,08,18,16,19,24.10
2015,08,18,16,20,24.10
2015,08,18,16,21,24.10
2015,08,18,16,22,24.10
2015,08,18,16,23,24.10
2015,08,18,16,24,24.00
2015,08,18,16,25,23.80
2015,08,18,16,26,23.70
2015,08,18,16,27,23.70
2015,08,18,16,28,23.70
2015,08,18,16,29,23.70
2015,08,18,16,30,23.70
2015,08,18,16,31,23.70
2015,08,18,16,32,23.70
2015,08,18,16,33,23.60
2015,08,18,16,34,23.50
2015,08,18,16,35,23.40
2015,08,18,16,36,23.40
2015,08,18,16,37,23.40
2015,08,18,16,38,23.40
2015,08,18,16,39,23.50
2015,08,18,16,40,23.70
2015,08,18,16,41,23.70
2015,08,18,16,42,23.80
2015,08,18,16,43,24.00
2015,08,18,16,44,24.10
2015,08,18,16,45,24.10
2015,08,18,16,46,24.20
2015,08,18,16,47,24.30
2015,08,18,16,48,24.30
2015,08,18,16,49,24.30
2015,08,18,16,50,24.30
2015,08,18,16,51,24.20
2015,08,18,16,52,24.10
2015,08,18,16,53,24.10
2015,08,18,16,54,24.10
2015,08,18,16,55,24.10
2015,08,18,16,56,24.20
2015,08,18,16,57,24.30
2015,08,18,16,58,24.40
2015,08,18,16,59,24.50
2015,08,18,17,00,24.60
2015,08,18,17,01,24.80
2015,08,18,17,02,24.90
2015,08,18,17,03,25.00
2015,08,18,17,04,25.10
2015,08,18,17,05,25.20
2015,08,18,17,06,25.20
2015,08,18,17,07,25.20
2015,08,18,17,08,25.30
2015,08,18,17,09,25.40
2015,08,18,17,10,25.40
2015,08,18,17,11,25.40
2015,08,18,17,12,25.30
2015,08,18,17,13,25.30
2015,08,18,17,14,25.20
2015,08,18,17,15,25.10
2015,08,18,17,16,24.90
2015,08,18,17,17,24.90
2015,08,18,17,18,24.80
2015,08,18,17,19,24.80